Tracking 29892 objects as of 21-Nov-2024
HD Live streaming from Space Station
objects crossing your sky now

STARLINK-31484

Track STARLINK-31484 now!
10-day predictions
STARLINK-31484 is classified as:


NORAD ID: 59005
Int'l Code: 2024-036H
Perigee: 481.9 km
Apogee: 483.0 km
Inclination: 53.2 °
Period: 94.1 minutes
Semi major axis: 6853 km
RCS: Unknown
Launch date: February 23, 2024
Source: United States (US)
Launch site: AIR FORCE WESTERN TEST RANGE (AFWTR)
Your satellite tracking list
Your tracking list is empty




NASA's NSSDC Master Catalog

Two Line Element Set (TLE):
1 59005U 24036H   24325.81363099 -.00004207  00000-0 -13012-3 0  9994
2 59005  53.1605 119.0235 0000758 158.3046 201.7987 15.30169305 42844
Source of the keplerian elements: AFSPC